Location: Newark
(44.2003°N, 3.2583°E)
Time: 15:51:08
(UTC+00:00)

SR - Pass Details

Date: 26 October 2019
Orbit: 574 x 882 km, 66.7° (Epoch: 12 November)

Event Time Altitude Azimuth Distance (km) Brightness Sun altitude
Rises 03:48:02 0° 333° (NNW) 3,441 - -26.9°
Exits shadow 03:50:08 - 341° (NNW) 2,757 ? -26.6°
Reaches altitude 10° 03:50:54 10° 345° (NNW) 2,526 ? -26.4°
Maximum altitude 03:55:52 27° 43° (NE) 1,619 ? -25.5°
Drops below altitude 10° 04:00:52 10° 100° (E) 2,532 ? -24.7°
Sets 04:03:43 0° 112° (ESE) 3,449 ? -24.2°
